Regional Weather Roundup
Issued by NWS

Home | Current Version | Previous Version | Text Only | Print | Product List | Glossary Off
Versions: 1 2 3 4 5 6 7 8 9 10 11 12 13 14 15 16 17 18 19 20 21 22 23 24 25 26 27 28 29 30 31 32 33 34 35 36 37 38 39 40 41 42 43 44 45 46 47 48 49 50

138
ASUS43 KMKX 231011
RWRWI

WISCONSIN REGIONAL WEATHER ROUNDUP
NATIONAL WEATHER SERVICE MILWAUKEE/SULLIVAN WI
500 AM CDT SUN JUL 23 2017

NOTE: "FAIR" INDICATES FEW OR NO CLOUDS BELOW 12,000 FEET WITH NO
SIGNIFICANT WEATHER AND/OR OBSTRUCTIONS TO VISIBILITY.

WIZ001-002-006>008-014>016-023>028-231100-
NORTHWEST WISCONSIN

CITY           SKY/WX    TMP DP  RH WIND       PRES   REMARKS
SUPERIOR ARPT  NOT AVBL
ASHLAND        CLOUDY    58  57  97 N6        29.84R FOG
HAYWARD        MOCLDY    59  58  96 CALM      29.83S FOG
SIREN          CLEAR     60  55  84 NW5       29.84S
CUMBERLAND     CLOUDY    63  54  72 NW10      29.84R
RICE LAKE      MOCLDY    63  57  81 CALM      29.83S
CHETEK         MOCLDY    62  59  91 CALM      29.83R
LADYSMITH      CLOUDY    64  59  83 NW3       29.84R
EAU CLAIRE     MOCLDY    63  62  97 CALM      29.81R
MENOMONIE      CLOUDY    66  59  78 CALM      29.82S
NEW RICHMOND   CLOUDY    64  60  88 NW3       29.84S
OSCEOLA        MOCLDY    65  65 100 CALM      29.87R
$$

WIZ003>005-009-010-017-018-231100-
NORTH CENTRAL WISCONSIN

CITY           SKY/WX    TMP DP  RH WIND       PRES   REMARKS
MANITOWISH WTR CLOUDY    61  61 100 CALM      29.82R
ARBOR VITAE    MOCLDY    62  61  96 N5        29.81R
WOODRUFF       MOCLDY    62  61  96 N5        29.81R
RHINELANDER    MOCLDY    60  60 100 NW5       29.82R
EAGLE RIVER    FOG       63  63 100 NW9       29.82R VSB 1/4
LAND O LAKES   CLOUDY    62  62 100 N6        29.83R
PHILLIPS       FOG       58  58 100 CALM      29.81R VSB 3/4
TOMAHAWK       FOG       57  56  97 CALM      29.82R VSB 1
MEDFORD        CLOUDY    62  62  98 W3        29.82S
MERRILL        MOCLDY    58  58 100 CALM      29.81R
$$

WIZ029-030-035-036-043>047-231100-
CENTRAL WISCONSIN

CITY           SKY/WX    TMP DP  RH WIND       PRES   REMARKS
WAUSAU         CLEAR     65  63  93 NW6       29.79R
MOSINEE        PTCLDY    63  63 100 W6        29.81R FOG
MARSHFIELD     MOCLDY    63  60  90 NW6       29.81R
STEVENS POINT  CLEAR     62  62 100 CALM      29.80S
WAUPACA        CLEAR     68  67  97 CALM      29.77F
WAUTOMA        CLEAR     66  65  96 W3        29.79S
WISC RAPIDS    CLEAR     59  59 100 NW3       29.80S FOG
CAMP DOUGLAS   FOG       59  59 100 W5        29.81R VSB 1
$$

WIZ011>013-019>022-031-037>040-048>050-231100-
NORTHEAST WISCONSIN

CITY           SKY/WX    TMP DP  RH WIND       PRES   REMARKS
ANTIGO         FOG       56  56 100 CALM      29.81S VSB 3/4
SHAWANO        FOG       68  67  95 CALM      29.76S VSB 1/4
OCONTO         CLOUDY    63  63  99 W3        29.75S
STURGEON BAY     N/A     64  62  93 SW5       29.76S
GREEN BAY      CLEAR     67  67 100 SW5       29.76R
MANITOWOC      MOCLDY    66  65  96 S3        29.78R FOG
APPLETON       CLEAR     64  64 100 W8        29.76S FOG
CLINTONVILLE   FOG       66  64  94 CALM      29.76F VSB 1
OSHKOSH        CLEAR     67  66  97 CALM      29.77S FOG
$$

WIZ032>034-041-042-053>061-231100-
SOUTHWEST WISCONSIN

CITY           SKY/WX    TMP DP  RH WIND       PRES   REMARKS
LA CROSSE      FOG       70  69  97 CALM      29.81R VSB 1/2
SPARTA         FOG       59  59 100 CALM      29.82R VSB 1/2
VIROQUA        CLEAR     65  65 100 CALM      29.83R
BOSCOBEL       FOG       66  65  96 CALM      29.81S VSB 1/2
PRAIRIE DU CHI PTCLDY    67  65  95 CALM      29.81S
PLATTEVILLE    CLEAR     67  67 100 CALM      29.83S
$$

WIZ056-057-062-063-064-067-068-231100-
SOUTH CENTRAL WISCONSIN

CITY           SKY/WX    TMP DP  RH WIND       PRES   REMARKS
REEDSBURG      CLEAR     65  65 100 CALM      29.80R
BARABOO/DELLS  CLEAR     64  62  93 CALM      29.80S
LONE ROCK      FOG       67  66  97 CALM      29.80S VSB 1/2
MINERAL POINT  CLEAR     68  68 100 NW3       29.83R
MADISON        CLEAR     70  67  90 NW3       29.79S
MIDDLETON      CLEAR     69  69 100 CALM      29.81F
WATERTOWN      PTCLDY    68  68 100 CALM      29.79R
MONROE         CLEAR     70  70 100 NW6       29.83R
JANESVILLE     PTCLDY    70  70 100 CALM      29.80R FOG
$$

WIZ051-052-058>065-066-070>072-231100-
SOUTHEAST WISCONSIN

CITY           SKY/WX    TMP DP  RH WIND       PRES   REMARKS
MILWAUKEE      CLOUDY    72  70  93 NE6       29.79R FOG
WAUKESHA       CLOUDY    68  66  94 NE3       29.81R
MILWAUKEE/TIMM MOCLDY    68  63  83 NE3       29.81R
RACINE         MOCLDY    70  70 100 SW3       29.80R
KENOSHA        PTCLDY    68  67  96 SW3       29.79R FOG
FOND DU LAC    CLEAR     70  67  90 CALM      29.78R
SHEBOYGAN      CLOUDY    67  67 100 S7        29.78S
WEST BEND      CLOUDY    66  66 100 E5        29.81R
JUNEAU         CLEAR     69  68  95 CALM      29.80R
$$

LSZ147-162-231100-
LAKE SUPERIOR

STATION/POSITION TIME  TEMP    WIND        PRES    WAVE
                       AIR SEA DIR/SP/G            HT/PER
                 (UTC) (F)     (DEG/KT/KT) (MB)    (FT/S)
W MID LAKE BUOY  0950   50 47   10/ 10/ 12 1010.0R   2/ 5
DEVILS ISLAND    1000   55      30/ 10/ 11 1011.0R
SAXON HARBOR     0930   59      CALM  /  4 1009.5R
$$

LMZ867-665-643>646-231100-
LAKE MICHIGAN

STATION/POSITION TIME  TEMP    WIND        PRES    WAVE
                       AIR SEA DIR/SP/G            HT/PER
                 (UTC) (F)     (DEG/KT/KT) (MB)    (FT/S)
CHAMBERS ISLAND  0940   67     240/  4/  5 1006.8S
S GREEN BAY BUOY 1000   69 72  260/ 10/ 12 1007.2
N MID LAKE BUOY  0950   67 68  160/  2/  4 1007.7F   0
NORTHPORT PIER   0940   64        CALM     1007.1F
KEWAUNEE LAKESHO 0948   66     210/  6/  9 1006.8S
SHEBOYGAN LAKESH 1000   67     180/ 10/ 11 1007.7R
PORT WASHINGTON  0940   68      80/  6/ 12 1009.8R
ATWATER BUOY     0939   70 68  100/ 14/ 16 1008.7R
MILWAUKEE LAKESH 0950   69      80/ 13/ 14   N/A
S MID LAKE BUOY  0950   70 70   80/  4/  4 1008.7R   0
KENOSHA   LAKESH 1000   73     250/  5/  6 1008.5
$$

TC  - TEMPERATURE IN CELSIUS
VSB - VISIBILITY IN STATUTE MILES
WCI - WIND CHILL INDEX
HX  - HEAT INDEX





USA.gov is the U.S. government's official web portal to all federal, state and local government web resources and services.